Location: Newark
(45.5000°N, 11.4167°E)
Time: 19:52:32
(UTC+00:00)

Explorer 11/Cluster Stage 4 - Pass Details

Date: 23 August 2019
Orbit: 467 x 1259 km, 28.8° (Epoch: 18 October)

Event Time Altitude Azimuth Distance (km) Brightness Sun altitude
Rises 13:12:08 0° 251° (WSW) 4,183 10.9 48.0°
Reaches altitude 10° 13:16:12 10° 234° (SW) 3,157 10.6 47.5°
Maximum altitude 13:21:07 18° 196° (SSW) 2,490 10.1 46.9°
Drops below altitude 10° 13:25:41 10° 157° (SSE) 2,883 9.8 46.3°
Sets 13:29:10 0° 138° (SE) 3,689 10.0 45.8°
